RH
9 22 28 30 36 26 24 21 13 20 20 30 32 49 64 69 75 94 85 75 76 91 98 90 70 84 82 83 65 60 82 94 84 76 74 65 52 53 56 56 53 69 65 60 59 58 48 44 44
13 29 27 28 25 26 18 16 21 19 18 27 26 36 51 71 68 77 68 88 88 89 94 83 63 79 88 86 85 66 74 94 87 80 70 55 59 66 70 76 65 75 75 79 74 53 34 36 43
15 29 30 32 23 18 23 17 16 14 14 14 18 31 53 66 63 49 48 79 87 90 94 93 91 85 84 82 92 94 77 94 86 82 85 79 75 71 72 77 80 79 79 87 84 61 39 34 37
34 27 21 21 19 16 18 18 14 14 13 13 13 36 67 75 66 41 35 44 48 80 94 96 90 85 92 92 87 96 87 94 74 78 88 88 79 71 66 72 80 71 74 85 86 82 64 43 35
24 23 29 20 18 15 20 17 15 15 14 12 13 17 54 67 60 47 36 38 38 44 60 81 97 94 97 98 97 93 90 93 95 79 84 86 84 74 69 69 68 69 90 94 90 90 86 56 38
25 16 24 24 18 18 20 18 15 15 13 12 13 12 42 52 60 51 37 34 32 32 30 29 30 62 88 90 92 95 90 87 93 88 85 80 77 70 77 70 70 73 90 89 90 90 78 59 39
31 27 25 15 21 18 19 19 19 19 15 19 16 13 33 42 38 45 43 38 35 33 30 29 28 24 22 42 85 94 95 90 88 89 84 86 74 75 81 74 80 73 77 77 79 81 71 57 39
29 28 15 14 18 22 20 19 22 19 20 19 16 17 25 40 31 22 28 27 20 21 18 17 18 19 19 21 27 62 87 94 90 88 87 82 81 84 83 77 84 87 71 70 74 76 62 47 35
24 37 25 16 15 22 20 18 22 22 20 20 20 19 22 24 24 31 33 29 37 40 39 37 23 16 15 13 16 20 23 64 92 92 85 83 76 68 88 82 82 91 91 89 88 66 56 33 26
28 40 22 18 17 21 20 23 24 23 22 20 20 22 22 24 28 28 29 30 32 32 36 40 26 20 20 19 19 17 25 63 67 84 95 88 81 76 89 87 84 86 97 97 92 60 46 24 21
26 31 21 21 29 26 23 24 26 23 26 18 19 21 22 24 26 28 28 31 34 34 29 27 22 20 19 21 22 20 22 51 76 68 77 93 91 85 88 88 89 93 93 98 96 71 44 20 21
27 23 23 26 36 30 26 30 26 26 22 21 23 25 27 27 26 27 31 34 33 31 27 26 25 23 22 22 24 23 24 42 51 58 64 72 86 94 89 92 94 95 99 100 98 94 53 19 70
27 26 29 36 37 35 32 31 28 26 23 23 24 25 25 26 28 30 32 33 35 33 26 25 24 25 26 26 29 29 27 28 42 44 48 53 51 67 92 95 97 99 97 99 99 92 57 30 74
33 31 32 34 30 27 32 27 25 20 23 22 22 23 25 27 30 30 31 33 37 32 28 27 24 24 25 27 28 28 27 28 30 37 47 53 59 60 45 64 84 98 100 100 99 93 76 70 77
39 34 30 34 28 28 31 35 33 22 24 23 21 22 26 31 30 30 29 32 39 31 31 30 30 30 29 29 29 30 29 29 30 31 32 36 53 59 50 36 28 32 70 96 98 95 85 76 83
32 27 33 34 28 31 30 29 29 22 23 21 20 21 28 29 29 31 35 36 39 41 36 33 33 32 31 32 32 32 32 31 31 32 33 43 56 51 36 34 34 29 36 92 88 96 87 89 88
28 55 26 38 28 30 30 30 20 21 21 22 20 21 26 27 32 34 38 39 38 36 35 35 32 30 29 28 26 25 25 27 30 31 32 38 60 60 40 32 32 31 41 56 99 100 93 85 77
59 26 19 22 35 30 34 33 24 16 17 17 20 22 23 29 35 41 42 36 37 38 40 35 34 29 24 23 22 21 22 23 23 25 28 35 65 69 45 40 36 44 80 100 99 98 96 92 93
21 22 18 26 35 37 34 30 24 16 17 20 18 20 22 29 36 39 40 40 35 35 42 40 34 29 27 26 26 26 25 31 47 56 47 37 47 77 71 56 52 52 79 99 98 97 98 100 100
25 26 29 31 31 35 34 39 32 19 21 20 17 18 23 30 34 37 40 42 41 41 42 41 36 30 30 34 43 42 38 37 38 40 53 71 52 74 87 66 56 76 98 95 93 90 96 100 96
30 30 26 32 37 34 42 40 26 22 22 23 22 24 25 29 31 33 35 35 35 33 36 40 39 37 34 40 56 64 61 59 58 50 44 62 75 60 90 99 81 85 97 98 74 96 99 94 99
46 29 32 38 52 75 34 59 27 28 25 24 23 23 25 25 25 26 27 29 31 33 35 39 39 40 50 62 78 87 92 86 76 78 86 84 78 74 76 88 100 100 97 100 85 98 96 100 98
49 38 49 52 71 63 47 76 31 23 26 27 26 22 23 25 28 30 31 32 34 37 38 40 61 70 71 77 87 92 96 98 88 87 86 83 84 90 88 84 96 99 96 99 99 98 100 100 97
46 46 56 74 89 88 55 61 38 27 24 28 24 24 25 28 30 31 33 35 38 40 43 66 76 80 80 82 86 88 90 90 81 78 81 84 83 85 91 87 91 93 97 99 100 97 99 92 92
50 50 90 94 93 86 33 48 34 23 27 29 29 26 28 30 33 34 36 38 40 52 58 70 85 85 85 89 87 86 82 82 80 83 88 82 90 84 90 91 84 94 96 99 100 100 99 99 99
61 47 88 76 87 78 38 60 30 28 26 24 26 27 29 32 35 36 37 43 62 70 76 83 81 88 88 94 88 92 91 87 78 84 83 87 93 88 88 92 88 90 93 100 98 99 100 99 99
49 63 42 59 35 76 52 33 31 30 33 27 28 29 31 34 37 37 40 58 72 74 78 80 88 86 90 89 95 93 92 96 96 91 90 91 96 98 98 91 92 98 95 99 97 98 100 100 100
51 37 61 70 79 72 55 37 66 40 37 29 33 33 32 34 37 38 43 69 75 79 78 86 86 92 90 88 91 87 82 83 95 96 97 99 98 99 97 98 89 99 96 99 98 99 100 99 100
55 52 46 61 76 88 76 49 26 37 37 32 32 32 33 36 37 40 46 69 79 75 79 89 93 96 87 89 82 78 77 83 96 89 81 90 91 100 98 96 92 96 98 96 99 100 100 100 100
44 41 42 84 71 82 87 80 26 32 33 31 33 33 33 32 37 41 50 70 88 85 93 97 95 88 87 86 88 88 83 96 96 90 98 91 97 98 98 98 94 93 100 100 100 98 100 100 100
Wind_Speed
3 3 3 2 1 3 7 3 4 7 5 8 7 5 12 15 6 4 5 8 3 1 8 7 10 8 6 4 8 9 9 6 6 7 6 5 4 4 4 5 8 8 6 4 4 4 5 5 4
2 3 2 5 2 4 1 6 10 9 7 2 3 4 6 7 14 10 6 7 5 0 6 5 6 9 7 5 4 7 8 7 7 5 6 6 5 5 5 5 7 8 4 6 7 4 5 6 4
2 5 3 3 4 2 2 9 9 11 7 6 3 11 6 6 9 7 10 10 3 7 9 8 6 5 6 6 6 7 8 8 11 9 8 7 6 6 6 6 8 7 7 8 8 3 4 4 3
2 3 6 2 8 4 7 9 6 9 6 5 5 8 8 6 6 8 9 12 11 10 5 7 8 7 8 7 8 9 7 10 9 12 9 9 8 8 7 7 9 7 8 11 8 3 1 1 2
1 5 3 4 3 6 8 11 6 5 5 9 7 4 9 8 9 8 8 5 8 4 5 4 4 7 8 8 9 10 11 10 10 13 12 11 10 9 9 9 10 9 8 12 9 6 3 2 3
5 4 3 5 7 7 6 3 1 5 3 4 3 5 7 7 6 2 3 2 2 2 4 4 1 2 6 10 11 10 10 11 12 11 14 14 13 12 11 11 11 10 10 10 10 9 7 5 5
3 2 4 4 7 5 5 1 3 8 4 7 2 4 9 6 4 2 2 4 5 6 6 5 8 5 5 3 5 11 11 11 13 14 16 17 15 14 13 12 12 13 12 11 10 11 9 7 7
4 2 1 4 5 3 4 1 3 2 6 3 1 2 7 7 3 2 4 7 8 10 12 13 13 12 11 9 8 7 11 13 14 18 17 18 18 17 16 15 14 16 15 14 14 13 10 9 9
3 2 3 3 2 5 6 3 4 1 0 1 1 1 4 1 6 4 9 8 4 4 5 12 10 10 13 13 11 12 9 11 15 16 18 19 19 19 18 18 17 18 16 15 14 14 11 11 11
2 2 5 6 5 6 6 1 4 2 9 7 4 1 2 3 4 7 10 11 12 11 8 12 13 12 11 10 10 12 10 10 12 16 18 19 20 21 19 19 20 20 20 17 16 14 12 11 11
4 2 6 5 8 5 3 5 3 3 5 5 4 3 1 5 8 8 8 8 8 8 9 9 12 14 14 11 10 12 9 6 10 13 17 19 19 20 22 22 21 22 23 23 21 16 13 11 11
2 6 7 4 4 2 1 5 5 10 3 5 1 3 5 4 4 4 3 3 5 6 7 7 7 7 10 13 11 10 9 10 10 10 10 12 17 21 22 23 24 23 28 26 25 20 15 12 10
3 4 3 3 1 2 3 6 5 10 8 4 4 6 7 4 1 1 1 5 5 5 6 8 9 7 5 8 10 10 10 11 12 11 11 16 19 17 19 23 24 27 30 31 29 21 13 17 17
3 4 4 1 1 4 3 4 7 3 9 6 5 6 3 2 2 2 2 2 1 2 5 7 9 9 6 5 7 10 12 12 13 16 17 13 15 21 21 20 22 25 31 37 31 23 16 15 18
4 3 3 5 1 2 3 4 7 5 8 3 7 3 4 3 1 1 2 1 3 3 6 7 8 9 9 7 6 8 9 11 13 14 15 17 21 25 27 24 21 21 25 31 28 21 23 19 18
3 1 2 4 1 1 2 0 8 13 6 7 5 3 5 4 3 3 4 3 5 3 4 6 8 8 9 10 10 11 12 13 14 16 16 17 19 23 24 23 24 22 20 28 21 31 28 26 27
4 3 6 3 2 2 4 4 5 12 11 13 4 10 8 6 4 6 8 7 5 1 5 6 9 12 15 17 20 22 21 19 17 18 20 20 22 25 25 20 19 21 21 20 28 34 34 31 25
4 5 1 2 3 3 6 10 11 13 12 12 9 16 10 7 7 7 6 5 4 3 6 10 13 16 20 24 27 28 28 27 26 24 22 21 23 26 25 22 19 17 18 21 28 32 33 29 30
2 3 3 6 4 2 7 7 9 14 1 4 11 17 12 7 7 7 6 4 6 8 11 14 19 22 27 33 31 28 26 23 22 24 26 25 25 27 26 27 23 20 21 27 27 35 25 29 35
4 3 4 4 4 2 6 14 9 5 7 11 10 13 11 7 4 3 5 7 11 14 19 22 25 30 32 31 28 26 27 27 27 26 27 21 24 27 29 30 27 23 24 27 28 30 31 35 37
5 5 3 3 3 5 6 7 6 2 7 5 8 11 8 4 3 4 5 9 14 19 22 27 33 35 33 31 27 26 25 26 26 24 23 27 24 26 29 32 30 28 28 31 29 32 36 37 40
3 5 5 3 1 2 1 4 5 7 7 6 11 11 13 8 7 9 12 15 19 21 23 27 33 36 34 28 24 24 24 24 24 22 20 19 24 27 28 32 31 31 31 32 31 36 35 40 42
1 5 5 4 3 4 4 3 5 9 7 9 11 14 9 11 12 13 15 17 21 22 24 29 30 30 27 26 24 23 24 23 22 23 23 23 25 25 29 26 31 33 30 33 31 32 33 37 44
10 6 4 3 3 1 8 5 3 4 8 8 11 10 13 15 14 14 16 20 24 25 26 26 29 28 25 20 18 21 22 23 24 23 24 26 27 27 28 29 29 33 31 32 35 34 33 36 40
5 4 0 2 2 4 4 2 5 5 10 10 10 10 10 11 13 17 20 23 23 23 24 28 26 28 23 20 20 20 23 25 26 25 25 25 28 26 28 30 29 35 33 33 34 37 35 38 44
8 3 4 6 4 4 3 5 2 8 18 13 9 8 9 13 15 19 20 21 22 23 29 29 27 25 21 20 20 22 24 24 24 26 28 28 29 29 28 30 30 33 36 35 32 34 35 36 40
4 3 2 2 0 4 5 3 5 8 8 7 9 10 11 14 15 18 19 20 21 28 32 31 25 23 21 21 21 22 20 22 23 26 26 28 31 31 28 31 31 31 34 34 29 31 32 40 37
2 1 2 1 3 4 5 6 5 11 8 2 6 10 13 16 16 19 21 18 25 30 30 24 21 18 22 24 24 24 24 24 25 28 27 29 31 29 28 31 32 29 33 32 32 32 28 29 31
3 2 2 2 3 4 1 3 3 8 8 2 5 9 12 16 18 19 21 23 28 30 26 24 21 22 24 24 27 26 26 24 25 28 31 31 30 27 26 32 32 29 33 30 31 33 29 30 36
2 4 6 4 3 2 3 5 6 9 8 8 8 12 16 21 17 19 19 24 27 31 26 22 24 24 29 31 29 27 24 19 21 26 23 19 23 22 25 34 29 29 30 30 30 31 28 27 32
Wind_Direction
262 12 82 235 276 209 253 103 82 100 86 39 44 12 95 56 33 77 86 47 41 12 198 239 208 191 189 196 188 187 176 179 191 198 190 184 186 176 172 179 179 174 181 192 180 147 130 121 130
238 83 135 268 251 227 302 120 79 61 54 114 86 352 54 76 83 82 49 32 83 141 158 251 199 196 198 216 220 197 190 188 194 193 200 197 202 191 186 181 174 173 204 192 168 146 123 111 129
140 138 250 197 221 330 54 64 92 87 46 36 97 54 40 89 67 96 81 47 93 123 175 176 223 204 196 203 211 244 197 209 206 203 213 209 211 215 209 205 191 200 194 193 170 134 115 108 140
110 297 271 273 262 40 78 62 57 120 106 70 18 85 81 74 113 108 95 103 76 76 123 194 206 223 222 223 209 225 223 225 216 205 223 229 229 225 224 210 212 231 221 203 197 182 126 80 175
109 270 267 220 104 86 51 38 352 78 60 60 355 123 101 95 123 141 107 93 100 62 93 98 196 220 234 241 240 234 237 240 234 215 219 235 238 236 233 227 234 233 224 207 215 220 255 289 223
264 254 278 235 110 88 81 65 354 5 94 74 35 354 97 135 181 201 133 112 29 14 36 358 51 195 245 251 249 237 253 220 251 233 227 238 244 243 239 242 239 224 219 215 232 240 257 269 241
252 213 283 330 105 133 117 130 22 21 278 48 39 320 127 136 204 256 298 297 289 295 297 292 292 298 292 286 260 247 242 234 229 248 240 237 243 242 237 244 236 226 221 220 234 243 254 260 244
290 301 277 40 157 108 88 146 109 316 45 45 55 3 91 126 280 326 316 290 293 295 291 283 277 281 278 275 276 261 246 243 235 237 244 244 245 243 242 241 238 229 228 228 235 247 255 255 241
290 290 209 83 351 107 141 217 128 251 290 127 235 72 91 244 309 344 305 316 298 290 318 296 296 286 279 270 264 270 272 262 249 243 242 246 247 245 248 243 239 235 235 231 234 247 250 250 238
252 303 45 27 41 110 122 271 75 287 182 210 187 171 302 323 316 307 318 319 312 304 273 269 289 290 288 286 265 261 253 274 270 253 249 247 247 247 250 245 242 238 240 234 242 242 246 238 230
348 351 110 53 60 18 70 222 161 249 244 97 87 97 258 275 293 310 314 309 306 300 303 301 290 278 276 272 266 270 254 239 279 281 259 254 253 246 243 244 242 238 236 241 246 250 244 229 221
147 22 17 101 65 353 332 351 248 216 67 110 181 255 279 302 304 290 306 337 347 357 357 348 333 308 278 267 273 274 250 222 241 274 296 278 262 251 245 246 244 239 237 239 249 246 240 208 174
71 114 80 83 45 276 298 250 277 274 238 243 235 310 305 288 261 36 357 41 357 354 15 14 5 353 312 274 270 278 276 253 243 261 265 273 276 263 249 246 250 247 244 240 240 246 225 191 173
68 82 88 117 157 277 280 289 324 236 191 195 301 298 273 217 189 105 128 192 55 18 42 39 31 24 13 334 285 282 282 277 264 245 239 244 271 277 264 253 248 248 247 230 227 225 202 197 185
141 173 171 204 192 306 307 260 220 173 160 230 304 232 206 174 131 189 266 164 122 63 60 45 40 34 28 13 334 312 301 283 277 278 273 266 255 262 269 265 257 253 253 242 233 198 189 181 180
208 301 217 116 201 189 329 221 204 164 189 266 296 198 178 190 199 238 127 115 130 78 11 11 6 2 358 347 338 326 310 295 285 278 276 272 261 268 274 279 267 255 246 224 255 207 219 181 179
197 237 201 166 178 335 224 307 142 189 211 251 245 178 186 188 192 173 167 166 178 267 328 326 330 331 325 317 312 310 304 295 289 283 276 273 260 266 271 274 272 265 245 244 220 208 204 191 195
207 214 100 176 145 256 261 261 281 259 228 246 213 165 178 174 172 186 188 205 221 255 282 309 312 310 311 310 309 302 293 290 288 282 278 270 261 267 274 269 268 261 233 229 220 212 211 226 202
332 7 11 101 111 301 249 260 275 282 154 184 208 156 154 157 188 198 217 257 285 298 295 300 295 299 304 307 304 296 289 280 271 282 285 271 252 256 260 265 259 251 231 228 229 223 226 192 195
221 189 237 101 109 237 312 297 270 185 175 180 177 124 116 134 188 264 289 291 304 303 293 287 292 301 303 304 299 294 289 284 278 268 261 268 259 244 253 256 251 236 227 226 230 230 212 195 199
231 213 188 125 204 230 308 283 142 108 118 98 80 93 109 92 39 6 317 303 295 299 301 292 299 304 307 303 297 293 292 291 291 285 269 257 261 254 241 247 247 239 228 229 229 223 224 209 201
238 49 57 117 90 211 266 272 202 161 146 138 132 120 92 65 13 332 315 304 301 301 299 292 296 302 303 302 294 292 289 285 288 282 271 273 259 262 256 245 245 238 223 228 226 227 228 216 205
148 86 66 44 78 47 217 92 266 134 160 145 125 103 79 17 343 329 320 310 307 307 300 302 309 311 301 298 291 295 289 285 297 286 275 267 256 262 259 254 238 233 228 222 226 226 217 223 215
129 122 111 138 130 24 211 154 241 187 175 132 136 86 21 355 345 335 321 313 313 311 308 313 311 312 306 301 294 289 287 287 292 288 282 271 259 250 259 251 239 235 230 224 217 230 231 225 224
217 182 267 354 12 222 87 80 227 89 70 96 73 29 2 352 348 336 326 322 320 323 309 314 311 308 301 289 287 288 286 285 290 288 284 280 278 259 251 249 243 231 231 224 223 218 228 226 222
197 204 179 198 184 193 115 227 242 102 99 94 60 25 1 357 348 335 328 326 325 318 321 319 308 309 299 299 293 287 288 286 281 281 288 285 280 269 255 253 244 235 227 227 220 218 221 226 224
152 212 324 78 114 74 207 200 80 130 131 102 59 28 3 354 344 338 332 330 326 321 324 318 312 304 298 300 298 298 295 288 287 285 283 281 278 272 258 244 240 230 228 224 226 223 226 218 210
324 18 94 296 157 228 248 200 199 177 174 103 39 18 1 348 344 340 338 326 325 329 331 327 321 306 304 301 301 295 295 292 286 285 282 278 277 274 251 237 236 226 222 221 222 217 221 223 220
150 256 248 92 140 174 278 268 46 139 137 135 50 16 1 356 342 341 337 325 332 336 333 328 326 318 314 309 301 295 289 289 286 289 293 279 280 272 239 232 231 225 220 219 214 218 218 218 204
302 250 170 133 219 202 141 280 113 135 185 89 39 15 3 344 335 339 332 327 334 333 333 326 326 324 321 310 303 305 292 284 292 303 303 279 267 251 234 231 226 215 216 215 217 209 217 211 216